TOURFACTS.DK  
Stats and Facts from Tour de France.

Tour de France 2017 starts in 5 days
  Riders   Stages   Teams   Summits   Yearly  


 
Search by year

 After:  2016 - Stage 21:
  14626 starters.
  5086 different riders.
  634 teams.
  2211 stages.
  454 restdays.
  436049.60 km.
  5622 abandonnees.


Top 3
Christopher Froome89:04:48
Romain Bardet89:08:53
Nairo Quintana89:09:09
Rafal Majka209 pt.
Thomas De Gendt130 pt.
Jarlinson Pantano ..121 pt.
Peter Sagan470 pt.
Marcel Kittel228 pt.
Michael Matthews199 pt.
Adam Yates89:09:30
Louis Meintjes89:11:46
Emanuel Buchmann89:52:28
Facts from Tour de France 2014
  |   Stages.  |   Stage winners.  |   Days in yellow  |   Average speed.  |   Route.  |   Teams.  |   All riders.  |   Rookies.  |   Withdrawls.  |  

  |   GC.  |   Polka  |   Green  |   White  |   Summits. (In tour)  |   Summits. (Points)  |   Miscellaneous.  |  

Stage 11 on 16 - 07 - 2014
         Owning:    Vincenzo Nibali      Joaquim Rodriguez      Peter Sagan      Romain Bardet  

Pick a stage:  1 2 3 4 5 6 7 8 9 10 11 12 13 14 15 16 17 18 19 20 21
  BesançonOyonnax | Dist: 187.50 km.
Cat: 3Côte de RognaCHEMartin Elmiger2 points 
Cat: 3Côte de ChouxCHEMartin Elmiger2 points 
Cat: 4Côte de DésertinCHEMartin Elmiger1 points 
Cat: 3Côte d'EchallonFRANicolas Roche2 points 

Average speed for all riders in stage:  40,741 km./hr.
    Place:Name:Team:Time:Km/h:
FRATony GallopinBELLotto-Belisol Team04:25:45  +  00:00:00=42,333 
DEUJohn DegenkolbNLDTeam Giant - Shimano04:25:45  +  00:00:00=42,333 
ITAMatteo TrentinBELOmega Pharma – Quick Step04:25:45  +  00:00:00=42,333 
4 ITADaniele BennatiRUSTinkoff Saxo04:25:45  +  00:00:00=42,333 
5 AUSSimon GerransAUSOrica - GreenEDGE04:25:45  +  00:00:00=42,333 
6 ESPJosé Joaquin RojasESPMovistar Team04:25:45  +  00:00:00=42,333 
7 BELGreg Van AvermaetUSABMC Racing Team04:25:45  +  00:00:00=42,333 
8 FRASamuel DumoulinFRAAg2r La Mondiale04:25:45  +  00:00:00=42,333 
9 SVKPeter SaganITACannondale Pro Cycling04:25:45  +  00:00:00=42,333 
10 FRAKévin RezaFRATeam Europcar04:25:45  +  00:00:00=42,333 
11 FRARomain BardetFRAAg2r La Mondiale04:25:45  +  00:00:00=42,333 
12 FRASylvain ChavanelCHEIAM Cycling04:25:45  +  00:00:00=42,333 
13 NLDBram TankinkNLDBelkin Pro Cycling04:25:45  +  00:00:00=42,333 
14 NLDBauke MollemaNLDBelkin Pro Cycling04:25:45  +  00:00:00=42,333 
15 BELJurgen Van Den BroeckBELLotto-Belisol Team04:25:45  +  00:00:00=42,333 
16 DEUPaul VossDEUTeam NetApp – Endura04:25:45  +  00:00:00=42,333 
17 CHEJakob FuglsangKAZAstana Pro Team04:25:45  +  00:00:00=42,333 
18 LUXFränk SchleckUSATrek Factory Racing04:25:45  +  00:00:00=42,333 
19 WALGeraint ThomasGBRSky Procycling04:25:45  +  00:00:00=42,333 
20 ITAVincenzo NibaliKAZAstana Pro Team04:25:45  +  00:00:00=42,333 
21 ESPAlejandro ValverdeESPMovistar Team04:25:45  +  00:00:00=42,333 
22 FRAJean-Christophe PeraudFRAAg2r La Mondiale04:25:45  +  00:00:00=42,333 
23 CZELeopold KönigDEUTeam NetApp – Endura04:25:45  +  00:00:00=42,333 
24 AUSRichie PorteGBRSky Procycling04:25:45  +  00:00:00=42,333 
25 POLRafal MajkaRUSTinkoff Saxo04:25:45  +  00:00:00=42,333 
26 USATejay Van GarderenUSABMC Racing Team04:25:45  +  00:00:00=42,333 
27 NLDSteven KruijswijkNLDBelkin Pro Cycling04:25:45  +  00:00:00=42,333 
28 POLMichal KwiatkowskiBELOmega Pharma – Quick Step04:25:45  +  00:00:00=42,333 
29 ESPMikel NieveGBRSky Procycling04:25:45  +  00:00:00=42,333 
30 FRAThibaut PinotFRAFDJ.fr04:25:45  +  00:00:00=42,333 
31 ESPHaimar ZubeldiaUSATrek Factory Racing04:25:45  +  00:00:00=42,333 
32 NLDLaurens ten DamNLDBelkin Pro Cycling04:25:45  +  00:00:00=42,333 
33 JPNChristopher HornerITALampre-Merida04:25:45  +  00:00:00=42,333 
34 FRAPierre RollandFRATeam Europcar04:25:45  +  00:00:00=42,333 
35 USRTanel KangertKAZAstana Pro Team04:25:45  +  00:00:00=42,333 
36 FRAJohn GadretESPMovistar Team04:25:52  +  00:00:07=42,314 
37 FRAArnold JeannessonFRAFDJ.fr04:25:52  +  00:00:07=42,314 
38 POLMichal GolasBELOmega Pharma – Quick Step04:25:54  +  00:00:09=42,309 
39 AUSMichael RogersRUSTinkoff Saxo04:25:57  +  00:00:12=42,301 
40 NLDTom DumoulinNLDTeam Giant - Shimano04:26:09  +  00:00:24=42,269 
41 ITAAlessandro De MarchiITACannondale Pro Cycling04:26:12  +  00:00:27=42,261 
42 ITADaniel OssUSABMC Racing Team04:26:27  +  00:00:42=42,222 
43 RUSYury TrofimovRUSTeam Katusha04:26:32  +  00:00:47=42,209 
44 FRAJulien SimonFRACofidis – Solutions Crédits04:26:32  +  00:00:47=42,209 
45 ITAGiovanni ViscontiESPMovistar Team04:26:32  +  00:00:47=42,209 
46 FRACédric PineauFRAFDJ.fr04:27:15  +  00:01:30=42,095 
47 ESPJon Izaguirre InsaustiESPMovistar Team04:27:17  +  00:01:32=42,090 
48 PRTRui CostaITALampre-Merida04:27:21  +  00:01:36=42,080 
49 CHEMichael SchärUSABMC Racing Team04:27:21  +  00:01:36=42,080 
50 SVKPeter VelitsUSABMC Racing Team04:27:21  +  00:01:36=42,080 
51 FRAFlorian GuillouFRABretagne - Séché Environnement04:27:21  +  00:01:36=42,080 
52 FRABrice FeilluFRABretagne - Séché Environnement04:27:21  +  00:01:36=42,080 
53 BELJan BakelantsBELOmega Pharma – Quick Step04:27:21  +  00:01:36=42,080 
54 FRARudy MolardFRACofidis – Solutions Crédits04:27:21  +  00:01:36=42,080 
55 USAPeter StetinaUSABMC Racing Team04:27:21  +  00:01:36=42,080 
56 FRABlel KadriFRAAg2r La Mondiale04:27:21  +  00:01:36=42,080 
57 ESPDaniel NavarroFRACofidis – Solutions Crédits04:27:21  +  00:01:36=42,080 
58 DEUTony MartinBELOmega Pharma – Quick Step04:27:21  +  00:01:36=42,080 
59 FRACyril GautierFRATeam Europcar04:27:21  +  00:01:36=42,080 
60 ESPLuis Angel MateFRACofidis – Solutions Crédits04:27:21  +  00:01:36=42,080 
61 HRVKristijan DurasekITALampre-Merida04:27:21  +  00:01:36=42,080 
62 PRTSergio PaulinhoRUSTinkoff Saxo04:27:21  +  00:01:36=42,080 
63 FRABryan CoquardFRATeam Europcar04:27:21  +  00:01:36=42,080 
64 AUSLuke DurbridgeAUSOrica - GreenEDGE04:27:21  +  00:01:36=42,080 
65 FRAThomas VoecklerFRATeam Europcar04:27:21  +  00:01:36=42,080 
66 ESPRubén PlazaESPMovistar Team04:27:21  +  00:01:36=42,080 
67 ESPRafael Valls FerriITALampre-Merida04:27:27  +  00:01:42=42,064 
68 CHEMichael AlbasiniAUSOrica - GreenEDGE04:28:12  +  00:02:27=41,946 
69 CHESébastien ReichenbachCHEIAM Cycling04:28:12  +  00:02:27=41,946 
70 USRGatis SmukulisRUSTeam Katusha04:29:51  +  00:04:06=41,690 
71 DNKLars BakBELLotto-Belisol Team04:29:51  +  00:04:06=41,690 
72 LUXBen GastauerFRAAg2r La Mondiale04:30:53  +  00:05:08=41,531 
73 ITAMatteo TosattoRUSTinkoff Saxo04:33:12  +  00:07:27=41,179 
74 FRANicolas EdetFRACofidis – Solutions Crédits04:33:45  +  00:08:00=41,096 
75 CHEMarcel WyssCHEIAM Cycling04:33:45  +  00:08:00=41,096 
76 USRRein TaaramäeFRACofidis – Solutions Crédits04:33:45  +  00:08:00=41,096 
77 FRAYohann GèneFRATeam Europcar04:33:45  +  00:08:00=41,096 
78 FRAMickaël CherelFRAAg2r La Mondiale04:33:45  +  00:08:00=41,096 
79 USAMatthew BuscheUSATrek Factory Racing04:33:59  +  00:08:14=41,061 
80 CHEMartin ElmigerCHEIAM Cycling04:33:59  +  00:08:14=41,061 
81 FRAArnaud GérardFRABretagne - Séché Environnement04:33:59  +  00:08:14=41,061 
82 ESPDavid de la CruzDEUTeam NetApp – Endura04:33:59  +  00:08:14=41,061 
83 ESPBeñat IntxaustiESPMovistar Team04:33:59  +  00:08:14=41,061 
84 FRAFlorian VachonFRABretagne - Séché Environnement04:33:59  +  00:08:14=41,061 
85 ESPJesus HerradaESPMovistar Team04:33:59  +  00:08:14=41,061 
86 FRANicolas RocheRUSTinkoff Saxo04:33:59  +  00:08:14=41,061 
87 BELDries DevenynsNLDTeam Giant - Shimano04:33:59  +  00:08:14=41,061 
88 POLBartosz HuzarskiDEUTeam NetApp – Endura04:35:27  +  00:09:42=40,842 
89 FRAPerrig QuemeneurFRATeam Europcar04:35:27  +  00:09:42=40,842 
90 COLJosé SerpaITALampre-Merida04:35:27  +  00:09:42=40,842 
91 AUSAdam HansenBELLotto-Belisol Team04:35:27  +  00:09:42=40,842 
92 ITAMatteo MontagutiFRAAg2r La Mondiale04:36:41  +  00:10:56=40,660 
93 ESPJoaquim RodriguezRUSTeam Katusha04:36:41  +  00:10:56=40,660 
94 ENGSimon YatesAUSOrica - GreenEDGE04:36:41  +  00:10:56=40,660 
95 ITAMarco MarcatoITACannondale Pro Cycling04:36:41  +  00:10:56=40,660 
96 POLMaciej BodnarITACannondale Pro Cycling04:36:41  +  00:10:56=40,660 
97 ITAMichele ScarponiKAZAstana Pro Team04:36:41  +  00:10:56=40,660 
98 CANSvein TuftAUSOrica - GreenEDGE04:40:12  +  00:14:27=40,150 
99 NLDTom-Jelte SlagterUSAGarmin Sharp04:40:12  +  00:14:27=40,150 
100 SVNSimon SpilakRUSTeam Katusha04:40:12  +  00:14:27=40,150 
101 ITAAlessandro PetacchiBELOmega Pharma – Quick Step04:44:10  +  00:18:25=39,589 
102 NLDNiki TerpstraBELOmega Pharma – Quick Step04:44:10  +  00:18:25=39,589 
103 NLDLars BoomNLDBelkin Pro Cycling04:44:10  +  00:18:25=39,589 
104 PRTNelson OliveiraITALampre-Merida04:44:10  +  00:18:25=39,589 
105 ITAFabio SabatiniITACannondale Pro Cycling04:44:10  +  00:18:25=39,589 
106 FRACyril LemoineFRACofidis – Solutions Crédits04:44:10  +  00:18:25=39,589 
107 FRAAdrien PetitFRACofidis – Solutions Crédits04:44:10  +  00:18:25=39,589 
108 ITAAlessandro VanottiKAZAstana Pro Team04:44:10  +  00:18:25=39,589 
109 UKRAndriy GrivkoKAZAstana Pro Team04:44:10  +  00:18:25=39,589 
110 NLDLieuwe WestraKAZAstana Pro Team04:44:10  +  00:18:25=39,589 
111 KAZMaxim IglinskiyKAZAstana Pro Team04:44:10  +  00:18:25=39,589 
112 NLDKoen De KortNLDTeam Giant - Shimano04:44:10  +  00:18:25=39,589 
113 FRAArmindo FonsecaFRABretagne - Séché Environnement04:44:10  +  00:18:25=39,589 
114 FRAAnthony DelaplaceFRABretagne - Séché Environnement04:44:10  +  00:18:25=39,589 
115 PRTJosé João PimentaDEUTeam NetApp – Endura04:44:10  +  00:18:25=39,589 
116 PRTTiago PintoDEUTeam NetApp – Endura04:44:10  +  00:18:25=39,589 
117 COLJanier AcevedoUSAGarmin Sharp04:44:10  +  00:18:25=39,589 
118 NLDRoy CurversNLDTeam Giant - Shimano04:44:10  +  00:18:25=39,589 
119 AUTBernhard EiselGBRSky Procycling04:44:10  +  00:18:25=39,589 
120 DNKMichael MørkøvRUSTinkoff Saxo04:44:10  +  00:18:25=39,589 
121 ESPImanol ErvitiESPMovistar Team04:44:10  +  00:18:25=39,589 
122 CHEGregory RastUSATrek Factory Racing04:44:10  +  00:18:25=39,589 
123 BELJürgen RoelandtsBELLotto-Belisol Team04:44:10  +  00:18:25=39,589 
124 ESPMarkel IrizarUSATrek Factory Racing04:44:10  +  00:18:25=39,589 
125 ESPDavid LopezGBRSky Procycling04:44:10  +  00:18:25=39,589 
126 FRAJérôme PineauCHEIAM Cycling04:44:10  +  00:18:25=39,589 
127 CZEJan BártaDEUTeam NetApp – Endura04:44:10  +  00:18:25=39,589 
128 AUSSimon ClarkeAUSOrica - GreenEDGE04:44:10  +  00:18:25=39,589 
129 BELJens KeukeleireAUSOrica - GreenEDGE04:44:10  +  00:18:25=39,589 
130 BELJohan VansummerenUSAGarmin Sharp04:44:10  +  00:18:25=39,589 
131 DEUJens VoigtUSATrek Factory Racing04:44:10  +  00:18:25=39,589 
132 USABenjamin KingUSAGarmin Sharp04:44:10  +  00:18:25=39,589 
133 JPNYukiya ArashiroFRATeam Europcar04:44:10  +  00:18:25=39,589 
134 DEUAndreas SchillingerDEUTeam NetApp – Endura04:44:10  +  00:18:25=39,589 
135 AUSHeinrich HausslerCHEIAM Cycling04:44:10  +  00:18:25=39,589 
136 FRAAmaël MoinardUSABMC Racing Team04:44:10  +  00:18:25=39,589 
137 BELMaarten WynantsNLDBelkin Pro Cycling04:44:10  +  00:18:25=39,589 
138 NLDTom LeezerNLDBelkin Pro Cycling04:44:10  +  00:18:25=39,589 
139 FRASébastien MinardFRAAg2r La Mondiale04:44:10  +  00:18:25=39,589 
140 FRAAlexandre PichotFRATeam Europcar04:44:10  +  00:18:25=39,589 
141 USADanny PateGBRSky Procycling04:44:10  +  00:18:25=39,589 
142 KAZDmitriy GruzdevKAZAstana Pro Team04:44:10  +  00:18:25=39,589 
143 FRAJérémy RoyFRAFDJ.fr04:44:10  +  00:18:25=39,589 
144 FRAMatthieu LadagnousFRAFDJ.fr04:44:10  +  00:18:25=39,589 
145 USAAlex HowesUSAGarmin Sharp04:44:10  +  00:18:25=39,589 
146 BLRVasil KiryienkaGBRSky Procycling04:44:10  +  00:18:25=39,589 
147 FRABenoît JarrierFRABretagne - Séché Environnement04:44:10  +  00:18:25=39,589 
148 CHNCheng JiNLDTeam Giant - Shimano04:46:11  +  00:20:26=39,310 
149 FRAWilliam BonnetFRAFDJ.fr04:46:11  +  00:20:26=39,310 
150 DEUMarcel SiebergBELLotto-Belisol Team04:46:11  +  00:20:26=39,310 
151 AUSMark RenshawBELOmega Pharma – Quick Step04:46:11  +  00:20:26=39,310 
152 DEUAndré GreipelBELLotto-Belisol Team04:46:11  +  00:20:26=39,310 
153 FRAMickael DelageFRAFDJ.fr04:46:11  +  00:20:26=39,310 
154 SVNKristjan KorenITACannondale Pro Cycling04:46:11  +  00:20:26=39,310 
155 FRAArthur VichotFRAFDJ.fr04:46:11  +  00:20:26=39,310 
156 DEUMarcel KittelNLDTeam Giant - Shimano04:46:11  +  00:20:26=39,310 
157 NLDTom VeelersNLDTeam Giant - Shimano04:46:11  +  00:20:26=39,310 
158 FRAArnaud DémareFRAFDJ.fr04:46:11  +  00:20:26=39,310 
159 NLDAlbert TimmerNLDTeam Giant - Shimano04:46:11  +  00:20:26=39,310 
160 FRARomain FeilluFRABretagne - Séché Environnement04:46:11  +  00:20:26=39,310 
161 CANChristian MeierAUSOrica - GreenEDGE04:46:11  +  00:20:26=39,310 
162 NORAlexander KristoffRUSTeam Katusha04:46:11  +  00:20:26=39,310 
163 RUSAlexander PorsevRUSTeam Katusha04:46:11  +  00:20:26=39,310 
164 ITAElia VivianiITACannondale Pro Cycling04:46:11  +  00:20:26=39,310 
165 BELSep VanmarckeNLDBelkin Pro Cycling04:46:11  +  00:20:26=39,310 
166 NLDSebastian LangeveldUSAGarmin Sharp04:46:11  +  00:20:26=39,310 
167 AUSZakkari DempsterDEUTeam NetApp – Endura04:46:11  +  00:20:26=39,310 
168 ITADavide CimolaiITALampre-Merida04:46:11  +  00:20:26=39,310 
169 FRAChristophe RiblonFRAAg2r La Mondiale04:46:11  +  00:20:26=39,310 
170 DEUMarcus BurghardtUSABMC Racing Team04:46:11  +  00:20:26=39,310 
171 FRAJean-Marc MarinoITACannondale Pro Cycling04:46:11  +  00:20:26=39,310 
172 FRAJean-Marc BideauFRABretagne - Séché Environnement04:46:11  +  00:20:26=39,310 
173 RUSVladimir IsaichevRUSTeam Katusha04:46:11  +  00:20:26=39,310 
174 USRRamunas NavardauskasUSAGarmin Sharp04:46:11  +  00:20:26=39,310 
175 CHEReto HollensteinCHEIAM Cycling04:46:11  +  00:20:26=39,310 
176 ITALuca PaoliniRUSTeam Katusha04:46:11  +  00:20:26=39,310 
177 DEURoger KlugeCHEIAM Cycling04:46:11  +  00:20:26=39,310 
178 NZLJack BauerUSAGarmin Sharp04:46:11  +  00:20:26=39,310 
179 USAAndrew TalanskyUSAGarmin Sharp04:57:50  +  00:32:05=37,773 

Withdrawls: 1
 
Rider
Team
Reason
163  CHEFabian CancellaraUSATrek Factory RacingDid not start

Todays birthdays.

1899  Ardito Bresciani
1908  Renato Scorticati
1927  Marcel Huber
1941  Roger Cooreman
1942  Luis Santamarina
1952  Ferdi Van den Haute
1956  Graziano Salvietti
1961  Massimo Ghirotto
1963  Thierry Marie
1968  Dominik Krieger
1979  Sébastien Joly
1981  Yohann Gène
1982  William Bonnet
1986  Marcel Wyss
1987  Rafael Valls Ferri
1988  Egor Silin